This is the latest recevied weather packets stored in our database for station/object SV5BYP-10. If no packets are shown the sender has not sent any weather packets the latest 10 day(s).
| Time | Temp. | Humidity | Pressure | Rain* | Wind** | Luminosity | Snow |
|---|---|---|---|---|---|---|---|
| 1777634719 | 28.89° C | 74% | 1013.9 hPa | - | - | - | - |
| 1777634119 | 28.33° C | 74% | 1013.9 hPa | - | - | - | - |
| 1777633519 | 28.89° C | 74% | 1013.9 hPa | - | - | - | - |
| 1777632919 | 28.89° C | 74% | 1013.8 hPa | - | - | - | - |
| 1777632319 | 28.33° C | 74% | 1013.8 hPa | - | - | - | - |
| 1777631718 | 28.33° C | 74% | 1013.8 hPa | - | - | - | - |
| 1777631118 | 28.33° C | 74% | 1013.8 hPa | - | - | - | - |
| 1777630518 | 28.33° C | 74% | 1013.8 hPa | - | - | - | - |
| 1777629918 | 27.78° C | 74% | 1013.9 hPa | - | - | - | - |
| 1777629318 | 27.78° C | 74% | 1013.9 hPa | - | - | - | - |
| 1777628718 | 27.78° C | 74% | 1013.8 hPa | - | - | - | - |
| 1777628117 | 27.78° C | 74% | 1014 hPa | - | - | - | - |
| 1777627517 | 27.22° C | 74% | 1014 hPa | - | - | - | - |
| 1777626917 | 27.22° C | 74% | 1013.9 hPa | - | - | - | - |
| 1777626317 | 27.22° C | 74% | 1014 hPa | - | - | - | - |
| 1777625716 | 23.33° C | 74% | 1014 hPa | - | - | - | - |
| 1777620895 | 26.11° C | 55% | 1014.1 hPa | - | - | - | - |
| 1777620295 | 26.67° C | 54% | 1013.7 hPa | - | - | - | - |
| 1777619695 | 26.67° C | 53% | 1013.6 hPa | - | - | - | - |
| 1777619095 | 25.56° C | 55% | 1013.5 hPa | - | - | - | - |
| 1777618495 | 25.56° C | 55% | 1013.6 hPa | - | - | - | - |
| 1777617894 | 26.11° C | 54% | 1013.7 hPa | - | - | - | - |
| 1777617294 | 26.11° C | 53% | 1013.4 hPa | - | - | - | - |
| 1777616694 | 27.22° C | 51% | 1013.3 hPa | - | - | - | - |
| 1777616287 | 27.78° C | 51% | 1013.2 hPa | - | - | - | - |
* Rain since midnight (hover to see other rain measurements)
** Current wind speed in m/s (hover to see current wind gust speed)